Location: G�ppingen
(48.7000°N, 9.6670°E)
Time: 08:12:25
(UTC+01:00)

Tiangong 1 - Visible Passes

Search period start: 16 December 2017 00:00
Search period end: 26 December 2017 00:00
Orbit: 274 x 301 km, 42.8° (Epoch: 15 December)

Date Brightness Start Highest point End Pass type
(mag) Time Alt. Az. Time Alt. Az. Time Alt. Az.
20 Dec 3.6 07:16:29 10° SSW 07:17:44 13° SSE 07:18:59 10° SE visible
21 Dec 3.4 07:19:26 10° SSW 07:21:09 17° SSE 07:22:53 10° SE visible
22 Dec 3.0 07:22:33 10° SW 07:24:29 19° S 07:26:26 10° ESE visible
23 Dec 3.6 05:53:56 13° SSE 05:53:56 13° SSE 05:54:57 10° SE visible
23 Dec 2.8 07:25:44 10° SW 07:27:44 21° S 07:29:44 10° SE visible
24 Dec 3.3 05:57:15 16° SSE 05:57:15 16° SSE 05:58:31 10° SE visible
24 Dec 2.8 07:28:55 10° SW 07:30:52 20° S 07:32:50 10° SE visible
25 Dec 3.1 06:00:23 18° SSE 06:00:23 18° SSE 06:01:44 10° ESE visible
25 Dec 2.9 07:32:05 10° WSW 07:33:53 18° S 07:35:41 10° SE visible
